This is the latest recevied weather packets stored in our database for station/object KC5DAQ-27. If no packets are shown the sender has not sent any weather packets the latest 10 day(s).
| Time | Temp. | Humidity | Pressure | Rain* | Wind** | Luminosity | Snow |
|---|---|---|---|---|---|---|---|
| 1788650051 | 25° C | 89% | 1003.5 hPa | 0 mm | - | 23 W/m² | - |
| 1788649990 | 25° C | 89% | 1003.6 hPa | 0 mm | - | 21 W/m² | - |
| 1788649930 | 25° C | 88% | 1003.6 hPa | 0 mm | - | 21 W/m² | - |
| 1788649872 | 25° C | 87% | 1003.7 hPa | 0 mm | - | 19 W/m² | - |
| 1788649810 | 25° C | 87% | 1003.7 hPa | 0 mm | - | 19 W/m² | - |
| 1788649750 | 25.56° C | 87% | 1003.8 hPa | 0 mm | - | 19 W/m² | - |
| 1788649691 | 25.56° C | 86% | 1003.8 hPa | 0 mm | - | 21 W/m² | - |
| 1788649630 | 25.56° C | 86% | 1003.7 hPa | 0 mm | - | 23 W/m² | - |
| 1788649570 | 25.56° C | 85% | 1003.8 hPa | 0 mm | - | 23 W/m² | - |
| 1788649510 | 26.11° C | 85% | 1003.7 hPa | 0 mm | - | 25 W/m² | - |
| 1788649451 | 26.11° C | 84% | 1003.8 hPa | 0 mm | - | 25 W/m² | - |
| 1788649390 | 26.67° C | 84% | 1003.8 hPa | 0 mm | - | 18 W/m² | - |
| 1788649332 | 27.78° C | 82% | 1003.6 hPa | 0 mm | - | 18 W/m² | - |
| 1788649265 | 27.78° C | 82% | 1003.8 hPa | 0 mm | - | 18 W/m² | - |
| 1788649203 | 27.78° C | 82% | 1003.8 hPa | 0 mm | - | 18 W/m² | - |
| 1788649143 | 27.78° C | 82% | 1003.8 hPa | 0 mm | - | 18 W/m² | - |
| 1788649082 | 27.78° C | 82% | 1003.7 hPa | 0 mm | - | 18 W/m² | - |
| 1788649022 | 27.78° C | 81% | 1003.7 hPa | 0 mm | - | 16 W/m² | - |
| 1788648963 | 28.33° C | 80% | 1003.7 hPa | 0 mm | - | 16 W/m² | - |
| 1788648904 | 28.33° C | 79% | 1003.8 hPa | 0 mm | - | 16 W/m² | - |
| 1788648842 | 28.33° C | 79% | 1003.7 hPa | 0 mm | - | 14 W/m² | - |
| 1788648781 | 28.89° C | 78% | 1003.8 hPa | 0 mm | - | 14 W/m² | - |
| 1788648719 | 29.44° C | 78% | 1003.7 hPa | 0 mm | - | 12 W/m² | - |
| 1788648658 | 29.44° C | 78% | 1003.6 hPa | 0 mm | - | 11 W/m² | - |
| 1788648596 | 29.44° C | 78% | 1003.6 hPa | 0 mm | - | 9 W/m² | - |
* Rain latest hour (hover to see other rain measurements)
** Current wind speed in m/s (hover to see current wind gust speed)